Regional Weather Roundup
Issued by NWS Goodland, KS

Home | Current Version | Previous Version | Graphics & Text | Print | Product List | Glossary On
Versions: 1 2 3 4 5 6 7 8 9 10 11 12 13 14 15 16 17 18 19 20 21 22 23 24 25 26 27 28 29 30 31 32 33 34 35 36 37 38 39 40 41 42 43 44 45 46 47 48 49 50
000
ASUS43 KGLD 251459
RWRGLD

GOODLAND FORECAST AREA HOURLY WEATHER ROUNDUP
NATIONAL WEATHER SERVICE GOODLAND KS
900 AM MDT MON MAY 25 2015

...OFFICIAL OBSERVATIONS...

CITY           SKY/WX    TMP DP  RH WIND       PRES   REMARKS
GOODLAND KS    MOSUNNY   59  50  72 NW12      29.85S
HILL CITY KS   MOSUNNY   63  55  75 VRB6      29.82F
IMPERIAL NEB   PTSUNNY   56  51  84 NW5       29.83R
MCCOOK NEB     SUNNY     62  53  72 SW8       29.81S
AKRON CO       MOSUNNY   55  47  74 NW14      29.89R
BURLINGTON CO  PTSUNNY   56  48  74 NW13      29.88R
LIMON CO       MOSUNNY   53  44  71 NW12      29.92S
$$

...UNOFFICIAL OBSERVATIONS...

CITY           SKY/WX    TMP DP  RH WIND       PRES   REMARKS
COLBY KS       SUNNY     61  55  82 W12       29.84F
GOVE KS          N/A     59  32  36 MISG        N/A
LENORA KS        N/A     59  32  36 MISG        N/A
NORTON KS      MOSUNNY   63  52  67 S8        29.81F
SHARON SPRINGS   N/A     59  51  75 MISG        N/A
KIT CARSON CO    N/A     58  49  73 MISG        N/A
$$


USA.gov is the U.S. government's official web portal to all federal, state and local government web resources and services.